• In Uzbekistan
  • List of Countries
  • For 7 days
  • Water Temperature
  • Satellite Maps
  • Weather Map
  • Weather Widgets
  • user-avatar
    Login

    Hourly Weather Bishkek

    Today, 24 September, Monday

    Time Temperature Precipitation Wind Pressure Humidity
    00:00 -5°C° 0.2 mm 2 mps 489 mmHg 85%
    01:00 -5°C° 0.2 mm 2 mps 488 mmHg 86%
    02:00 -6°C° 0.2 mm 2 mps 488 mmHg 87%
    03:00 -7°C° 0 mm 2 mps 487 mmHg 85%
    04:00 -7°C° 0 mm 2 mps 487 mmHg 83%
    05:00 -7°C° 0 mm 2 mps 487 mmHg 83%
    06:00 -6°C° 0 mm 2 mps 488 mmHg 78%
    07:00 -5°C° 0 mm 2 mps 489 mmHg 72%
    08:00 -4°C° 0 mm 2 mps 489 mmHg 67%
    09:00 -3°C° 0.2 mm 2 mps 490 mmHg 64%
    10:00 -3°C° 0.2 mm 2 mps 490 mmHg 61%
    11:00 -2°C° 0 mm 3 mps 490 mmHg 61%
    12:00 -2°C° 0.9 mm 3 mps 490 mmHg 62%
    13:00 -3°C° 0.9 mm 4 mps 490 mmHg 63%
    14:00 -3°C° 0.9 mm 4 mps 490 mmHg 65%
    15:00 -4°C° 0.9 mm 4 mps 490 mmHg 67%
    16:00 -4°C° 0.9 mm 3 mps 490 mmHg 69%
    17:00 -5°C° 0.9 mm 3 mps 490 mmHg 72%
    18:00 -6°C° 0.3 mm 3 mps 489 mmHg 75%
    19:00 -6°C° 0.3 mm 2 mps 489 mmHg 78%
    20:00 -6°C° 0.3 mm 2 mps 489 mmHg 81%
    21:00 -7°C° 0 mm 2 mps 489 mmHg 80%
    22:00 -8°C° 0 mm 2 mps 488 mmHg 79%
    23:00 -8°C° 0 mm 2 mps 488 mmHg 78%

    Tomorrow, 25 September, Tuesday

    Time Temperature Precipitation Wind Pressure Humidity
    00:00 -8°C° 0 mm 2 mps 488 mmHg 75%
    01:00 -8°C° 0 mm 2 mps 487 mmHg 72%
    02:00 -9°C° 0 mm 2 mps 487 mmHg 69%
    03:00 -9°C° 0 mm 2 mps 487 mmHg 66%
    04:00 -9°C° 0 mm 2 mps 487 mmHg 63%
    05:00 -9°C° 0 mm 2 mps 487 mmHg 60%
    06:00 -7°C° 0 mm 2 mps 488 mmHg 56%
    07:00 -6°C° 0 mm 2 mps 489 mmHg 53%
    08:00 -4°C° 0 mm 2 mps 491 mmHg 49%
    09:00 -1°C° 0 mm 1 mps 491 mmHg 46%
    10:00 0°C° 0 mm 1 mps 492 mmHg 43%
    11:00 +1°C° 0 mm 1 mps 492 mmHg 40%
    12:00 +1°C° 0 mm 2 mps 493 mmHg 40%
    13:00 +1°C° 0 mm 2 mps 493 mmHg 41%
    14:00 +2°C° 0 mm 2 mps 493 mmHg 42%
    15:00 +1°C° 0 mm 2 mps 492 mmHg 43%
    16:00 +2°C° 0 mm 1 mps 492 mmHg 45%
    17:00 +1°C° 0 mm 1 mps 491 mmHg 47%
    18:00 -2°C° 0 mm 2 mps 491 mmHg 48%
    19:00 -4°C° 0 mm 2 mps 490 mmHg 49%
    20:00 -6°C° 0 mm 3 mps 489 mmHg 50%
    21:00 -6°C° 0 mm 3 mps 489 mmHg 48%
    22:00 -6°C° 0 mm 3 mps 489 mmHg 47%
    23:00 -6°C° 0 mm 3 mps 489 mmHg 46%

    Day after tomorrow, 26 September, Wednesday

    Time Temperature Precipitation Wind Pressure Humidity
    00:00 -6°C° 0 mm 3 mps 489 mmHg 46%
    01:00 -7°C° 0 mm 3 mps 488 mmHg 45%
    02:00 -7°C° 0 mm 3 mps 488 mmHg 45%
    03:00 -7°C° 0 mm 3 mps 488 mmHg 46%
    04:00 -7°C° 0 mm 3 mps 488 mmHg 46%
    05:00 -7°C° 0 mm 3 mps 488 mmHg 47%
    06:00 -5°C° 0 mm 2 mps 489 mmHg 46%
    07:00 -3°C° 0 mm 2 mps 490 mmHg 45%
    08:00 -2°C° 0 mm 2 mps 491 mmHg 44%
    09:00 +1°C° 0 mm 1 mps 491 mmHg 41%
    10:00 +2°C° 0 mm 1 mps 492 mmHg 38%
    11:00 +4°C° 0 mm 1 mps 493 mmHg 35%
    12:00 +4°C° 0 mm 1 mps 493 mmHg 35%
    13:00 +4°C° 0 mm 1 mps 493 mmHg 34%
    14:00 +5°C° 0 mm 1 mps 493 mmHg 34%
    15:00 +4°C° 0 mm 1 mps 492 mmHg 38%
    16:00 +3°C° 0 mm 1 mps 492 mmHg 41%
    17:00 +3°C° 0 mm 1 mps 491 mmHg 45%
    18:00 +2°C° 0 mm 1 mps 491 mmHg 45%
    19:00 -2°C° 0 mm 2 mps 490 mmHg 45%
    20:00 -3°C° 0 mm 2 mps 490 mmHg 44%
    21:00 -3°C° 0 mm 2 mps 490 mmHg 43%
    22:00 -4°C° 0 mm 3 mps 489 mmHg 42%
    23:00 -4°C° 0 mm 3 mps 489 mmHg 41%

    27 September, Thursday

    Time Temperature Precipitation Wind Pressure Humidity
    00:00 -5°C° 0 mm 3 mps 489 mmHg 40%
    01:00 -5°C° 0 mm 3 mps 489 mmHg 39%
    02:00 -5°C° 0 mm 3 mps 489 mmHg 38%
    03:00 -5°C° 0 mm 3 mps 489 mmHg 38%
    04:00 -5°C° 0 mm 3 mps 489 mmHg 38%
    05:00 -5°C° 0 mm 3 mps 489 mmHg 38%
    06:00 -3°C° 0 mm 2 mps 490 mmHg 38%
    07:00 -2°C° 0 mm 2 mps 491 mmHg 38%
    08:00 -1°C° 0 mm 2 mps 492 mmHg 38%
    09:00 +1°C° 0 mm 2 mps 492 mmHg 37%
    10:00 +3°C° 0 mm 1 mps 493 mmHg 35%
    11:00 +4°C° 0 mm 1 mps 493 mmHg 33%
    12:00 +5°C° 0.1 mm 1 mps 493 mmHg 34%
    13:00 +5°C° 0.1 mm 1 mps 493 mmHg 35%
    14:00 +5°C° 0.1 mm 1 mps 493 mmHg 35%
    15:00 +4°C° 0.1 mm 1 mps 492 mmHg 39%
    16:00 +3°C° 0.1 mm 0 mps 492 mmHg 43%
    17:00 +2°C° 0.1 mm 0 mps 492 mmHg 47%
    18:00 +2°C° 0.1 mm 1 mps 491 mmHg 48%
    19:00 -1°C° 0.1 mm 2 mps 491 mmHg 49%
    20:00 -2°C° 0.1 mm 2 mps 490 mmHg 51%
    21:00 -2°C° 0.1 mm 2 mps 490 mmHg 50%
    22:00 -2°C° 0.1 mm 2 mps 490 mmHg 50%
    23:00 -2°C° 0.1 mm 3 mps 490 mmHg 50%

    28 September, Friday

    Time Temperature Precipitation Wind Pressure Humidity
    00:00 -3°C° 0.1 mm 2 mps 490 mmHg 51%
    01:00 -3°C° 0.1 mm 2 mps 490 mmHg 51%
    02:00 -3°C° 0.1 mm 2 mps 489 mmHg 52%
    03:00 -3°C° 0.2 mm 2 mps 489 mmHg 52%
    04:00 -4°C° 0.2 mm 2 mps 489 mmHg 53%
    05:00 -4°C° 0.2 mm 2 mps 489 mmHg 54%
    06:00 -3°C° 0.1 mm 2 mps 490 mmHg 53%
    07:00 -2°C° 0.1 mm 2 mps 491 mmHg 53%
    08:00 -2°C° 0.1 mm 2 mps 491 mmHg 53%
    09:00 -1°C° 0.2 mm 2 mps 492 mmHg 53%
    10:00 +2°C° 0.2 mm 1 mps 492 mmHg 53%
    11:00 +2°C° 0.2 mm 1 mps 492 mmHg 53%
    12:00 +2°C° 0.5 mm 1 mps 492 mmHg 55%
    13:00 +2°C° 0.5 mm 2 mps 492 mmHg 56%
    14:00 +2°C° 0.5 mm 2 mps 492 mmHg 57%
    15:00 +1°C° 0.3 mm 2 mps 492 mmHg 59%
    16:00 +1°C° 0.3 mm 2 mps 492 mmHg 60%
    17:00 +2°C° 0.3 mm 1 mps 492 mmHg 62%
    18:00 -1°C° 0.1 mm 2 mps 492 mmHg 63%
    19:00 -2°C° 0.1 mm 2 mps 492 mmHg 64%
    20:00 -4°C° 0.1 mm 2 mps 491 mmHg 65%
    21:00 -4°C° 0 mm 2 mps 491 mmHg 65%
    22:00 -4°C° 0 mm 2 mps 491 mmHg 64%
    23:00 -4°C° 0 mm 2 mps 491 mmHg 64%

    29 September, Saturday

    Time Temperature Precipitation Wind Pressure Humidity
    00:00 -6°C° 0 mm 3 mps 491 mmHg 63%
    01:00 -6°C° 0 mm 3 mps 491 mmHg 63%
    02:00 -6°C° 0 mm 3 mps 490 mmHg 63%
    03:00 -6°C° 0 mm 3 mps 490 mmHg 63%
    04:00 -6°C° 0 mm 3 mps 490 mmHg 63%
    05:00 -5°C° 0 mm 2 mps 490 mmHg 63%
    06:00 -4°C° 0 mm 2 mps 491 mmHg 61%
    07:00 -3°C° 0 mm 2 mps 493 mmHg 59%
    08:00 -1°C° 0 mm 2 mps 494 mmHg 57%
    09:00 +2°C° 0 mm 1 mps 494 mmHg 53%
    10:00 +3°C° 0 mm 1 mps 495 mmHg 49%
    11:00 +4°C° 0 mm 1 mps 495 mmHg 45%
    12:00 +4°C° 0 mm 1 mps 495 mmHg 44%
    13:00 +5°C° 0 mm 1 mps 495 mmHg 43%
    14:00 +4°C° 0 mm 2 mps 495 mmHg 43%
    15:00 +4°C° 0 mm 2 mps 495 mmHg 45%
    16:00 +4°C° 0 mm 1 mps 494 mmHg 47%
    17:00 +3°C° 0 mm 1 mps 494 mmHg 49%
    18:00 +1°C° 0 mm 2 mps 493 mmHg 51%
    19:00 -1°C° 0 mm 2 mps 493 mmHg 52%
    20:00 -2°C° 0 mm 2 mps 492 mmHg 54%
    21:00 -3°C° 0 mm 2 mps 492 mmHg 53%
    22:00 -3°C° 0 mm 2 mps 492 mmHg 53%
    23:00 -4°C° 0 mm 3 mps 491 mmHg 53%
    Show more